Weather Roundup
Issued by NWS Springfield, MO

Home | Current Version | Previous Version | Text Only | Print | Product List | Glossary On
Versions: 1 2 3 4 5 6 7 8 9 10 11 12 13 14 15 16 17 18 19 20 21 22 23 24 25 26 27 28 29 30 31 32 33 34 35 36 37 38 39 40 41 42 43 44 45 46 47 48 49 50
000
NZUS99 KSGF 300707
HRRSGF

HOURLY WEATHER
NATIONAL WEATHER SERVICE SPRINGFIELD MO
200 AM CDT MON MAY 30 2016

......SGF CWA......

CITY           SKY/WX    TMP DP  RH WIND       PRES   REMARKS
SPRINGFIELD    CLEAR     67  62  84 S3        30.07F
JOPLIN         PTCLDY    66  64  93 S3        30.06F
WEST PLAINS    CLEAR     63  59  87 CALM      30.10F
ROLLA          CLEAR     64  60  87 SW8       30.07S

......SURROUNDING SGF CWA......

CITY           SKY/WX    TMP DP  RH WIND       PRES   REMARKS
CHANUTE        CLEAR     66  64  93 SE5       30.04F
PARSONS        CLOUDY    65  64  97 E3        30.05F
COFFEYVILLE    CLOUDY    65  63  93 NE3       30.04F
EMPORIA        CLOUDY    63  62  97 CALM      30.04F
GROVE OK       PTCLDY    64  61  88 CALM      30.06F
ROGERS AR        N/A     64  63  96 SE3       30.09S
SILOAM SPRINGS PTCLDY    63  55  77 SE5       30.07F
HARRISON AR    CLOUDY    64  62  93 CALM      30.08F
NEAR YELLVILLE CLOUDY   N/A N/A N/A CALM      30.03F

......KANSAS AND MISSOURI......

CITY           SKY/WX    TMP DP  RH WIND       PRES   REMARKS
KANSAS CTY INT CLOUDY    65  59  81 S7        30.04F
DOWNTOWN KC    CLOUDY    72  60  66 S3        30.03F
COLUMBIA       PTCLDY    69  62  78 S6        30.07R
SEDALIA        PTCLDY    66  62  87 S5        30.07S
ST JOSEPH      CLOUDY    68  61  78 CALM      30.02F
ST LOUIS       CLOUDY    72  60  66 CALM      30.06R
SPIRIT OF STL  PTCLDY    65  63  93 CALM      30.05R
KIRKSVILLE     CLOUDY    68  62  81 SW3       30.05S
WICHITA        MOCLDY    67  61  81 E6        30.03F
TOPEKA         CLOUDY    65  64  97 CALM      30.03F
OLATHE         CLEAR     67  60  78 CALM      30.04F

......TENNESSEE......

CITY           SKY/WX    TMP DP  RH WIND       PRES   REMARKS
MEMPHIS        PTCLDY    74  69  85 NW5       30.04F
NASHVILLE      MOCLDY    74  66  76 CALM      30.04S

......ARKANSAS.......

CITY           SKY/WX    TMP DP  RH WIND       PRES   REMARKS
FAYETTEVILLE   PTCLDY    59  59 100 CALM      30.07F
FT SMITH       CLOUDY    70  64  81 E5        30.03F
LITTLE ROCK    MOCLDY    66  63  90 SW3       30.05F

......OKLAHOMA.......

CITY           SKY/WX    TMP DP  RH WIND       PRES   REMARKS
TULSA          MOCLDY    69  63  81 E3        30.01F
PONCA CITY     CLOUDY    70  62  76 S6        30.03R
MCALESTER      MOCLDY    71  62  73 CALM      30.03F
OKLAHOMA CITY  CLOUDY    68  61  78 NE10      30.05F

......IOWA............

CITY           SKY/WX    TMP DP  RH WIND       PRES   REMARKS
DES MOINES     CLOUDY    70  59  68 NE5       30.00F
QUAD CITIES    CLOUDY    65  57  75 CALM      30.00F

......ILLINOIS........

CITY           SKY/WX    TMP DP  RH WIND       PRES   REMARKS
QUINCY         CLOUDY    66  62  87 S5        30.04R
CHICAGO        CLEAR     67  58  72 W7        30.00S




USA.gov is the U.S. government's official web portal to all federal, state and local government web resources and services.